TimeWET,TemperatureF,Dew PointF,Humidity,Sea Level PressureIn,VisibilityMPH,Wind Direction,Wind SpeedMPH,Gust SpeedMPH,PrecipitationIn,Events,Conditions,WindDirDegrees,DateUTC
12:00 AM,66.2,62.6,88,30.15,6.2,Variable,2.3,-,N/A,,Mostly Cloudy,0,2012-10-06 00:00:00
1:00 AM,66.2,62.6,88,30.18,6.2,Calm,Calm,-,N/A,,Mostly Cloudy,0,2012-10-06 01:00:00
2:00 AM,66.2,62.6,88,30.15,6.2,West,1.2,-,N/A,,Mostly Cloudy,270,2012-10-06 02:00:00
3:00 AM,65,63,92,30.10,6,Calm,Calm,,,,Partly Cloudy,,2012-10-06 03:00:00
3:00 AM,64.4,62.6,94,30.12,6.2,Calm,Calm,-,N/A,,Mostly Cloudy,0,2012-10-06 03:00:00
4:00 AM,64.4,62.6,94,30.12,6.2,Calm,Calm,-,N/A,,Mostly Cloudy,0,2012-10-06 04:00:00
5:00 AM,64.4,60.8,88,30.12,6.2,Variable,2.3,-,N/A,,Mostly Cloudy,0,2012-10-06 05:00:00
7:00 AM,64.4,62.6,94,30.15,6.2,NW,6.9,-,N/A,,Scattered Clouds,310,2012-10-06 07:00:00
8:00 AM,69.8,64.4,83,30.18,6.2,North,6.9,-,N/A,,Scattered Clouds,350,2012-10-06 08:00:00
9:00 AM,73,65,71,30.13,6,North,9.2,,,,Clear,350,2012-10-06 09:00:00
9:00 AM,73.4,66.2,78,30.18,-9999.0,North,9.2,-,N/A,,Clear,350,2012-10-06 09:00:00
10:00 AM,77.0,62.6,61,30.18,-9999.0,North,10.4,-,N/A,,Clear,360,2012-10-06 10:00:00
11:00 AM,80.6,60.8,51,30.18,-9999.0,Variable,4.6,-,N/A,,Clear,0,2012-10-06 11:00:00
12:00 PM,85,58,30,30.06,12,North,4.6,,,,Scattered Clouds,350,2012-10-06 12:00:00
12:00 PM,86.0,59.0,40,30.15,6.2,North,4.6,-,N/A,,Partly Cloudy,350,2012-10-06 12:00:00
1:00 PM,86.0,64.4,48,30.15,6.2,North,13.8,-,N/A,,Partly Cloudy,350,2012-10-06 13:00:00
2:00 PM,86.0,64.4,48,30.12,6.2,North,12.7,-,N/A,,Partly Cloudy,360,2012-10-06 14:00:00
3:00 PM,83,64,43,30.04,12,North,17.3,,,,Partly Cloudy,350,2012-10-06 15:00:00
3:00 PM,82.4,64.4,54,30.12,6.2,North,17.3,-,N/A,,Scattered Clouds,350,2012-10-06 15:00:00
5:00 PM,77.0,64.4,65,30.15,6.2,North,13.8,-,N/A,,Partly Cloudy,350,2012-10-06 17:00:00
8:00 PM,69.8,64.4,83,30.18,6.2,NNW,4.6,-,N/A,,Partly Cloudy,330,2012-10-06 20:00:00
9:00 PM,68,63,80,30.16,9,South,2.3,,,,Scattered Clouds,190,2012-10-06 21:00:00
9:00 PM,68.0,62.6,83,30.21,6.2,South,2.3,-,N/A,,Partly Cloudy,190,2012-10-06 21:00:00
10:00 PM,68.0,62.6,83,30.21,6.2,South,3.5,-,N/A,,Partly Cloudy,180,2012-10-06 22:00:00
11:00 PM,66.2,60.8,83,30.18,6.2,Calm,Calm,-,N/A,,Partly Cloudy,0,2012-10-06 23:00:00